www.pogodaiklimat.ru

Погода и климат >> Архив погоды >> Украина >> Ильичевск


ПОГОДА в Ильичёвске

  • Прогноз погоды в Ильичёвске
  • Монитор погоды в Ильичёвске
  • Климат города

АРХИВ ПОГОДЫ в Ильичёвске

Время (UTC), дата Ветер
(напр.,м/с)
 
Видим.   Явления Облачность Т
(С)
Тd
(С)
f
(%)
Тe
(С)
Тes
(С)
Комфортность P
(гПа)
Po
(гПа)
Тmin
(С)
Tmax
(С)
R
(мм)
S
(см)
09 16.02 СЗ 2 ясно 54 1030.7
12 16.02 СЗ 3 ясно 52 1029.3
15 16.02 Ю 2 2 балла 69 1029.3
18 16.02 З 1 ясно 80 1029.3
21 16.02 штиль 0 дымка ясно 85 1028.0
00 17.02 Ю 1 н/о ясно -1.8 -3.8 86 -4 -4 1033.4 1026.7
03 17.02 Ю 1 н/о ясно -2.8 -4.8 86 -5 -5 1032.1 1025.3
06 17.02 Ю 3 н/о дымка ясно +0.2 -0.9 92 -5 1030.7 1024.0
09 17.02 Ю 2 ясно 76 1024.0
12 17.02 Ю 1 ясно 81 1022.7
15 17.02 Ю 2 ясно 85 1020.0
18 17.02 Ю 2 ясно 87 1020.0
21 17.02 Ю 3 ясно 88 1018.7
00 18.02 Ю 1 7 баллов 88 1017.3
03 18.02 Ю 1 н/о 7 баллов +1.0 -0.8 88 -1 -1 1022.6 1016.0
06 18.02 Ю 2 н/о 8 баллов +1.1 -0.4 90 -2 -2 1022.6 1016.0
09 18.02 штиль 0 10 баллов 75 1017.3
12 18.02 Ю 1 10 баллов 79 1017.3
15 18.02 Ю 1 10 баллов 84 1017.3
18 18.02 СЗ 2 10 баллов 86 1018.7
21 18.02 СЗ 2 10 баллов 85 1020.0
00 19.02 СЗ 2 н/о 6 баллов +1.2 -1.7 81 -2 -2 1025.3 1018.7
03 19.02 СЗ 2 н/о дымка 10 баллов +2.0 +0.1 87 -1 1027.9 1021.3
06 19.02 СЗ 2 н/о дымка 10 баллов +1.9 +0.6 91 -2 1029.3 1022.7
09 19.02 В 2 дымка 8 баллов 90 1024.0
12 19.02 штиль 0 дымка 10 баллов 89 1024.0
15 19.02 Ю 2 дымка ясно 89 1022.7
18 19.02 штиль 0 дымка ясно 98 1022.7
21 19.02 штиль 0 н/о дымка ясно 0.0 -0.3 98 -1 1026.7 1020.0
00 20.02 С 1 н/о дымка ясно 0.0 -0.3 98 -2 1026.7 1020.0
03 20.02 В 2 н/о дымка ясно +0.8 -0.3 92 -3 1023.9 1017.3
06 20.02 СВ 1 слабый дождь н/о 100 1022.6 1017.3 1.0
09 20.02 СВ 2 н/о слабый дождь н/о +0.8 +0.8 100 -3 1021.3 1014.7
12 20.02 СВ 4 н/о слабый дождь н/о +1.0 +0.4 96 -4 1018.6 1012.0 8.0
15 20.02 СВ 3 н/о в посл. час дождь н/о +1.6 +1.3 98 -3 1017.3 1010.7
18 20.02 СВ 2 н/о туман н/о +1.2 +1.2 100 -3 1015.9 1009.3 8.0
21 20.02 СЗ 1 туман н/о 100 1009.3
00 21.02 СЗ 2 в посл. час туман н/о 96 1008.0
03 21.02 СЗ 1 дымка 10 баллов 98 1006.7
06 21.02 З 2 н/о дымка 10 баллов +1.0 +0.7 98 -3 1013.2 1006.7
09 21.02 ЮЗ 1 н/о дымка 7 баллов +3.8 +2.3 90 +2 1011.8 1005.3
12 21.02 ЮЗ 2 н/о 9 баллов +7.4 +2.7 72 +6 +6 1010.4 1004.0
15 21.02 З 2 н/о 9 баллов +6.2 +1.9 74 +4 +4 1009.1 1002.7
18 21.02 ЮЗ 1 н/о слабый дождь н/о +4.6 +2.6 87 +3 1009.1 1002.7 0.5
21 21.02 З 2 н/о в посл. час дождь н/о +4.4 +2.9 90 +2 1009.1 1002.7
00 22.02 З 3 10 баллов 90 1008.9 1002.7 0.0
03 22.02 З 3 н/о 8 баллов +3.8 +1.5 85 0 0 1009.1 1002.7
06 22.02 З 3 н/о слабый дождь н/о +4.2 +3.5 95 0 1010.4 1004.0 0.4
09 22.02 СЗ 8 н/о 2 балла +7.4 +1.0 64 +3 1011.7 1005.3
12 22.02 СЗ 8 н/о 7 баллов +8.2 -1.1 52 +4 1011.7 1005.3 0.0
15 22.02 СЗ 8 н/о ясно +7.6 -2.4 49 +3 +3 1013.1 1006.7
18 22.02 Ю 3 н/о ясно +3.3 -3.7 60 -0 -0 1013.2 1006.7 0.0
21 22.02 Ю 3 10 баллов 78 1005.3
00 23.02 ЮЗ 4 ясно 77 1002.7
03 23.02 ЮЗ 3 н/о 5 баллов +4.2 +0.9 79 +1 +1 1006.4 1000.0

 

Местоположение метеостанции Ильичевск (Одесская область, Украина): широта 46.40 долгота 30.70 высота над уровнем моря 52 м.

В архиве по умолчанию представлена погода в Ильичёвске за последнюю неделю. Архивные данные за месяц целиком и за предыдущие месяцы, начиная с января 2011 года, Вы можете получить, выбрав интересующий диапазон дат из раскрывающегося списка и нажав кнопку "Ввод!".

Внимание! Время в таблицах - всемирное. Для получения местного времени необходимо прибавить поправку, которая в Ильичёвске равна 2 ч.

Смотрите также архив погоды в соседних городах и на ближайших метеорологических станциях:

Погода в Одессе (Одесская область, Украина) (6 км)
Погода в Белгород-Днестровском (Одесская область, Украина) (35 км)
Погода в Раздельной (Одесская область, Украина) (69 км)
Погода в Сербке (Одесская область, Украина) (69 км)
Погода в Заставе (Одесская область, Украина) (70 км)
Погода в Очакове (Николаевская область, Украина) (70 км)
Погода в Сарате (Одесская область, Украина) (90 км)
Погода в Штефан Водэ (Молдова) (94 км)
Погода в Тирасполе (Молдова) (101 км)
Погода в Вилково (Одесская область, Украина) (108 км)

Пояснения к столбцам:

Ветер - указаны скорость ветра в м/с - средняя за 10 мин, порывы в срок и между сроками (в фигурных скобках) и направление, откуда дует ветер: С - северный, СВ - северо-восточный, В - восточный, ЮВ - юго-восточный, Ю - южный, ЮЗ - юго-западный, З - западный, СЗ - северо-западный.
Видимость - горизонтальная дальность видимости в метрах или километрах. При видимости от 1 до 10 км при отсутствии осадков обычно наблюдается дымка, при ухудшении видимости до 1 км и менее - туман. В сухую погоду видимость может ухудшаться дымом, пылью или мглою.
Явления - указаны атмосферные явления, наблюдавшиеся в срок или в последний час перед сроком; фигурными скобками обозначены явления, наблюдавшиеся между сроками (за 1-3 часа до срока); квадратными скобками обозначены град или гололедные отложения с указанием их диаметра в мм.
Облачность - указаны через наклонную черту общая и нижняя облачность в баллах и высота нижней границы облаков в метрах; квадратными скобками обозначены формы облаков: Ci - перистые, Cs - перисто-слоистые, Cc - перисто-кучевые, Ac - высококучевые, As - высокослоистые, Sc - слоисто-кучевые, Ns - слоисто-дождевые, Cu - кучевые, Cb - кучево-дождевые. Подробнее классификацию облаков см. в Атласе облаков (PDF).
T - Температура воздуха - температура, измеренная на высоте 2 м над землей.
Td - Температура точки росы - температура, при понижении до которой содержащийся в воздухе водяной пар достигнет насыщения.
f - Относительная влажность воздуха - влажноcть воздуха, измеренная на высоте 2 м над землей.
Te - Эффективная температура - температура, которую ощущает одетый по сезону человек в тени. Характеристика душности погоды. При расчете учитывается влияние влажности воздуха и скорости ветра на теплоощущения человека.
Tes - Эффективная температура на солнце - температура, которую ощущает человек, с поправкой на солнечный нагрев. Характеристика знойности погоды. Зависит от высоты солнца над горизонтом, облачности и скорости ветра. Ночью, в пасмурную погоду, а также при ветре 12 м/с и более поправка равна нулю.
P - Атмосферное давление - приведенное к уровню моря атмосферное давление.
Po - Атмосферное давление - измеренное на уровне метеостанции атмосферное давление.
Tmin - Минимальная температура - минимум температуры воздуха на высоте 2 м над землей.
Tmax - Максимальная температура - максимум температуры воздуха на высоте 2 м над землей.
R - Количество осадков - Количество выпавших осадков, мм. При наведении курсора мыши на число - период времени, за который выпало указанное количество осадков.
S - Снежный покров - Высота снежного покрова, см. При наведении курсора мыши на число - состояние снежного покрова и степень покрытия местности в баллах.